Powrót do katalogu

FENGYUN 1C DEB

AktywnyPO
NORAD 31001·DEBRIS·🇨🇳 China

Wystrzelony May 10, 1999 z Taiyuan Satellite Launch Center

Loading…

Następne Przeloty (najbliższe 24 godziny)

TLE

ŚwieżeSource: Space-Track

Epoka: Sep 14, 2026, 04:01 UTC

1 31001U 99025BCT 26257.16773404  .00001141  00000-0  31036-3 0  9997
2 31001  99.2399 158.8867 0146402  62.0401 299.5517 14.43581227 21582

Śledź FENGYUN 1C DEB w czasie rzeczywistym z AllMySat

Download on the App Store